Time,TemperatureF,DewpointF,PressureIn,WindDirection,WindDirectionDegrees,WindSpeedMPH,WindSpeedGustMPH,Humidity,HourlyPrecipIn,Conditions,Clouds,dailyrainin,SolarRadiationWatts/m^2,SoftwareType,DateUTC
2013-03-16 00:03:00,46.3,18.0,30.00,ENE,61,11.0,-999.0,32,-99.99,,,0.00,0,weatherlink.com 1.10,2013-03-16 06:03:00,
2013-03-16 00:18:00,45.5,18.0,30.01,ENE,70,5.0,-999.0,33,-99.99,,,0.00,0,weatherlink.com 1.10,2013-03-16 06:18:00,
2013-03-16 00:33:00,45.3,20.0,30.01,ESE,121,5.0,-999.0,36,-99.99,,,0.00,0,weatherlink.com 1.10,2013-03-16 06:33:00,
2013-03-16 00:48:00,45.1,23.0,30.00,East,88,11.0,-999.0,42,-99.99,,,0.00,0,weatherlink.com 1.10,2013-03-16 06:48:00,
2013-03-16 01:03:00,44.5,24.0,30.00,ENE,69,7.0,-999.0,44,-99.99,,,0.00,0,weatherlink.com 1.10,2013-03-16 07:03:00,
2013-03-16 01:18:00,43.6,24.0,29.99,East,88,12.0,-999.0,47,-99.99,,,0.00,0,weatherlink.com 1.10,2013-03-16 07:18:00,
2013-03-16 01:33:00,42.8,25.0,30.00,East,81,5.0,-999.0,49,-99.99,,,0.00,0,weatherlink.com 1.10,2013-03-16 07:33:00,
2013-03-16 01:48:00,42.4,25.0,30.00,ESE,103,8.0,-999.0,50,-99.99,,,0.00,0,weatherlink.com 1.10,2013-03-16 07:48:00,
2013-03-16 02:03:00,41.5,25.0,30.00,East,101,9.0,-999.0,53,-99.99,,,0.00,0,weatherlink.com 1.10,2013-03-16 08:03:00,
2013-03-16 02:18:00,41.5,26.0,30.00,East,98,14.0,-999.0,54,-99.99,,,0.00,0,weatherlink.com 1.10,2013-03-16 08:18:00,
2013-03-16 02:33:00,40.4,26.0,29.99,ENE,76,10.0,-999.0,57,-99.99,,,0.00,0,weatherlink.com 1.10,2013-03-16 08:33:00,
2013-03-16 02:49:00,39.7,26.0,29.99,ENE,74,12.0,-999.0,58,-99.99,,,0.00,0,weatherlink.com 1.10,2013-03-16 08:49:00,
2013-03-16 03:04:00,38.5,26.0,29.98,ENE,66,14.0,-999.0,61,-99.99,,,0.00,0,weatherlink.com 1.10,2013-03-16 09:04:00,
2013-03-16 03:19:00,38.7,26.0,29.98,ENE,61,13.0,-999.0,61,-99.99,,,0.00,0,weatherlink.com 1.10,2013-03-16 09:19:00,
2013-03-16 03:34:00,37.5,26.0,29.98,ENE,62,8.0,-999.0,63,-99.99,,,0.00,0,weatherlink.com 1.10,2013-03-16 09:34:00,
2013-03-16 03:49:00,35.8,25.0,29.98,NE,51,10.0,-999.0,65,-99.99,,,0.00,0,weatherlink.com 1.10,2013-03-16 09:49:00,
2013-03-16 04:04:00,34.7,25.0,29.96,NE,56,7.0,-999.0,68,-99.99,,,0.00,0,weatherlink.com 1.10,2013-03-16 10:04:00,
2013-03-16 04:19:00,34.1,25.0,29.96,NE,54,7.0,-999.0,69,-99.99,,,0.00,0,weatherlink.com 1.10,2013-03-16 10:19:00,
2013-03-16 04:34:00,33.5,25.0,29.96,NE,56,11.0,-999.0,71,-99.99,,,0.00,0,weatherlink.com 1.10,2013-03-16 10:34:00,
2013-03-16 04:49:00,33.1,25.0,29.95,NE,53,8.0,-999.0,72,-99.99,,,0.00,0,weatherlink.com 1.10,2013-03-16 10:49:00,
2013-03-16 05:04:00,32.6,25.0,29.96,ENE,59,10.0,-999.0,73,-99.99,,,0.00,0,weatherlink.com 1.10,2013-03-16 11:04:00,
2013-03-16 05:19:00,32.6,25.0,29.96,ENE,59,7.0,-999.0,73,-99.99,,,0.00,0,weatherlink.com 1.10,2013-03-16 11:19:00,
2013-03-16 05:34:00,32.0,25.0,29.97,ENE,61,6.0,-999.0,74,-99.99,,,0.00,0,weatherlink.com 1.10,2013-03-16 11:34:00,
2013-03-16 05:49:00,31.9,25.0,29.97,ENE,63,8.0,-999.0,75,-99.99,,,0.00,0,weatherlink.com 1.10,2013-03-16 11:49:00,
2013-03-16 06:04:00,32.0,25.0,29.96,NE,52,6.0,-999.0,74,-99.99,,,0.00,0,weatherlink.com 1.10,2013-03-16 12:04:00,
2013-03-16 06:19:00,31.5,24.0,29.96,NE,53,6.0,-999.0,75,-99.99,,,0.00,0,weatherlink.com 1.10,2013-03-16 12:19:00,
2013-03-16 06:34:00,31.2,24.0,29.96,NE,55,7.0,-999.0,75,-99.99,,,0.00,0,weatherlink.com 1.10,2013-03-16 12:34:00,
2013-03-16 06:49:00,30.9,25.0,29.97,ENE,67,7.0,-999.0,77,-99.99,,,0.00,0,weatherlink.com 1.10,2013-03-16 12:49:00,
2013-03-16 07:04:00,31.8,25.0,29.98,NE,49,0.0,-999.0,75,-99.99,,,0.00,0,weatherlink.com 1.10,2013-03-16 13:04:00,
2013-03-16 07:19:00,32.5,25.0,29.97,ENE,78,1.0,-999.0,73,-99.99,,,0.00,0,weatherlink.com 1.10,2013-03-16 13:19:00,
2013-03-16 07:34:00,32.1,24.0,29.97,ENE,57,0.0,-999.0,73,-99.99,,,0.00,11,weatherlink.com 1.10,2013-03-16 13:34:00,
2013-03-16 07:49:00,31.1,24.0,29.97,NW,316,0.0,-999.0,74,-99.99,,,0.00,23,weatherlink.com 1.10,2013-03-16 13:49:00,
2013-03-16 08:04:00,30.5,24.0,29.98,WNW,288,1.0,-999.0,76,-99.99,,,0.00,42,weatherlink.com 1.10,2013-03-16 14:04:00,
2013-03-16 08:19:00,30.6,24.0,29.98,WNW,288,0.0,-999.0,76,-99.99,,,0.00,44,weatherlink.com 1.10,2013-03-16 14:19:00,
2013-03-16 08:34:00,31.0,24.0,29.98,WNW,288,0.0,-999.0,76,-99.99,,,0.00,120,weatherlink.com 1.10,2013-03-16 14:34:00,
2013-03-16 08:49:00,32.5,26.0,29.99,NNW,342,3.0,-999.0,76,-99.99,,,0.00,158,weatherlink.com 1.10,2013-03-16 14:49:00,
2013-03-16 09:04:00,34.6,26.0,29.99,North,360,3.0,-999.0,70,-99.99,,,0.00,142,weatherlink.com 1.10,2013-03-16 15:04:00,
2013-03-16 09:19:00,35.4,26.0,29.99,NNW,335,3.0,-999.0,69,-99.99,,,0.00,141,weatherlink.com 1.10,2013-03-16 15:19:00,
2013-03-16 09:34:00,36.3,26.0,29.99,NNW,331,3.0,-999.0,67,-99.99,,,0.00,309,weatherlink.com 1.10,2013-03-16 15:34:00,
2013-03-16 09:49:00,37.3,26.0,29.98,NE,39,6.0,-999.0,64,-99.99,,,0.00,272,weatherlink.com 1.10,2013-03-16 15:49:00,
2013-03-16 10:05:00,37.5,26.0,29.98,NNE,32,0.0,-999.0,63,-99.99,,,0.00,230,weatherlink.com 1.10,2013-03-16 16:05:00,
2013-03-16 10:20:00,37.9,26.0,29.99,NE,38,1.0,-999.0,63,-99.99,,,0.00,241,weatherlink.com 1.10,2013-03-16 16:20:00,
2013-03-16 10:35:00,38.8,27.0,29.98,NNE,24,0.0,-999.0,62,-99.99,,,0.00,190,weatherlink.com 1.10,2013-03-16 16:35:00,
2013-03-16 10:50:00,39.6,26.0,29.98,ENE,65,3.0,-999.0,59,-99.99,,,0.00,606,weatherlink.com 1.10,2013-03-16 16:50:00,
2013-03-16 11:05:00,41.6,27.0,29.99,ENE,76,0.0,-999.0,56,-99.99,,,0.00,608,weatherlink.com 1.10,2013-03-16 17:05:00,
2013-03-16 11:20:00,45.1,28.0,29.99,NNW,331,0.0,-999.0,51,-99.99,,,0.00,650,weatherlink.com 1.10,2013-03-16 17:20:00,
2013-03-16 11:35:00,47.3,27.0,29.98,NNW,334,0.0,-999.0,46,-99.99,,,0.00,675,weatherlink.com 1.10,2013-03-16 17:35:00,
2013-03-16 11:50:00,48.4,27.0,29.98,WNW,296,0.0,-999.0,44,-99.99,,,0.00,696,weatherlink.com 1.10,2013-03-16 17:50:00,
2013-03-16 12:05:00,48.2,26.0,29.97,NE,53,0.0,-999.0,43,-99.99,,,0.00,726,weatherlink.com 1.10,2013-03-16 18:05:00,
2013-03-16 12:20:00,50.1,27.0,29.97,SW,234,0.0,-999.0,41,-99.99,,,0.00,742,weatherlink.com 1.10,2013-03-16 18:20:00,
2013-03-16 12:35:00,47.9,27.0,29.96,South,182,0.0,-999.0,44,-99.99,,,0.00,752,weatherlink.com 1.10,2013-03-16 18:35:00,
2013-03-16 12:50:00,48.4,27.0,29.96,South,169,4.0,-999.0,43,-99.99,,,0.00,768,weatherlink.com 1.10,2013-03-16 18:50:00,
2013-03-16 13:05:00,49.6,27.0,29.96,SSE,155,0.0,-999.0,41,-99.99,,,0.00,773,weatherlink.com 1.10,2013-03-16 19:05:00,
2013-03-16 13:20:00,49.6,26.0,29.95,SW,229,0.0,-999.0,40,-99.99,,,0.00,782,weatherlink.com 1.10,2013-03-16 19:20:00,
2013-03-16 13:35:00,50.9,26.0,29.93,ESE,106,2.0,-999.0,38,-99.99,,,0.00,786,weatherlink.com 1.10,2013-03-16 19:35:00,
2013-03-16 13:50:00,51.8,25.0,29.92,NE,42,0.0,-999.0,36,-99.99,,,0.00,782,weatherlink.com 1.10,2013-03-16 19:50:00,
2013-03-16 14:20:00,53.1,23.0,29.91,WSW,238,2.0,-999.0,31,-99.99,,,0.00,761,weatherlink.com 1.10,2013-03-16 20:20:00,
2013-03-16 14:35:00,54.7,24.0,29.91,West,277,0.0,-999.0,30,-99.99,,,0.00,751,weatherlink.com 1.10,2013-03-16 20:35:00,
2013-03-16 14:50:00,56.2,23.0,29.90,WSW,245,2.0,-999.0,28,-99.99,,,0.00,661,weatherlink.com 1.10,2013-03-16 20:50:00,
2013-03-16 15:05:00,54.6,22.0,29.89,SSW,202,0.0,-999.0,28,-99.99,,,0.00,759,weatherlink.com 1.10,2013-03-16 21:05:00,
2013-03-16 15:20:00,53.8,20.0,29.88,SSW,192,7.0,-999.0,27,-99.99,,,0.00,719,weatherlink.com 1.10,2013-03-16 21:20:00,
2013-03-16 15:35:00,53.6,21.0,29.88,SSW,198,2.0,-999.0,28,-99.99,,,0.00,239,weatherlink.com 1.10,2013-03-16 21:35:00,
2013-03-16 15:50:00,54.0,20.0,29.88,WSW,249,0.0,-999.0,26,-99.99,,,0.00,178,weatherlink.com 1.10,2013-03-16 21:50:00,
2013-03-16 16:05:00,53.0,22.0,29.88,NE,52,17.0,-999.0,30,-99.99,,,0.00,156,weatherlink.com 1.10,2013-03-16 22:05:00,
2013-03-16 16:20:00,53.0,24.0,29.89,SE,128,4.0,-999.0,32,-99.99,,,0.00,264,weatherlink.com 1.10,2013-03-16 22:20:00,
2013-03-16 16:35:00,52.7,23.0,29.89,NE,39,6.0,-999.0,32,-99.99,,,0.00,174,weatherlink.com 1.10,2013-03-16 22:35:00,
2013-03-16 16:50:00,52.5,21.0,29.89,NNW,336,0.0,-999.0,29,-99.99,,,0.00,125,weatherlink.com 1.10,2013-03-16 22:50:00,
2013-03-16 17:05:00,52.4,19.0,29.89,North,360,6.0,-999.0,27,-99.99,,,0.00,109,weatherlink.com 1.10,2013-03-16 23:05:00,
2013-03-16 17:20:00,52.9,17.0,29.89,West,275,8.0,-999.0,24,-99.99,,,0.00,306,weatherlink.com 1.10,2013-03-16 23:20:00,
2013-03-16 17:35:00,53.9,12.0,29.88,NW,306,4.0,-999.0,19,-99.99,,,0.00,306,weatherlink.com 1.10,2013-03-16 23:35:00,
2013-03-16 17:50:00,53.4,12.0,29.88,NW,305,5.0,-999.0,19,-99.99,,,0.00,160,weatherlink.com 1.10,2013-03-16 23:50:00,
2013-03-16 18:05:00,52.1,11.0,29.88,NW,308,5.0,-999.0,19,-99.99,,,0.00,54,weatherlink.com 1.10,2013-03-17 00:05:00,
2013-03-16 18:20:00,52.1,10.0,29.88,WNW,296,10.0,-999.0,18,-99.99,,,0.00,79,weatherlink.com 1.10,2013-03-17 00:20:00,
2013-03-16 18:36:00,51.6,9.0,29.89,WNW,292,12.0,-999.0,18,-99.99,,,0.00,32,weatherlink.com 1.10,2013-03-17 00:36:00,
2013-03-16 18:50:00,51.0,10.0,29.89,WNW,295,9.0,-999.0,19,-99.99,,,0.00,35,weatherlink.com 1.10,2013-03-17 00:50:00,
2013-03-16 19:06:00,50.3,9.0,29.89,WNW,296,3.0,-999.0,19,-99.99,,,0.00,14,weatherlink.com 1.10,2013-03-17 01:06:00,
2013-03-16 19:21:00,49.0,9.0,29.89,NW,314,2.0,-999.0,20,-99.99,,,0.00,0,weatherlink.com 1.10,2013-03-17 01:21:00,
2013-03-16 19:36:00,47.7,8.0,29.89,NW,306,1.0,-999.0,20,-99.99,,,0.00,0,weatherlink.com 1.10,2013-03-17 01:36:00,
2013-03-16 19:51:00,45.5,10.0,29.89,NNW,348,2.0,-999.0,23,-99.99,,,0.00,0,weatherlink.com 1.10,2013-03-17 01:51:00,
2013-03-16 20:06:00,45.4,10.0,29.89,NW,310,2.0,-999.0,24,-99.99,,,0.00,0,weatherlink.com 1.10,2013-03-17 02:06:00,
2013-03-16 20:21:00,45.1,10.0,29.89,North,360,3.0,-999.0,24,-99.99,,,0.00,0,weatherlink.com 1.10,2013-03-17 02:21:00,
2013-03-16 20:36:00,44.5,11.0,29.89,NNW,342,5.0,-999.0,25,-99.99,,,0.00,0,weatherlink.com 1.10,2013-03-17 02:36:00,
2013-03-16 20:51:00,43.8,11.0,29.89,NNW,348,3.0,-999.0,26,-99.99,,,0.00,0,weatherlink.com 1.10,2013-03-17 02:51:00,
2013-03-16 21:06:00,42.5,11.0,29.90,NNW,334,0.0,-999.0,27,-99.99,,,0.00,0,weatherlink.com 1.10,2013-03-17 03:06:00,
2013-03-16 21:21:00,42.0,10.0,29.90,West,266,2.0,-999.0,27,-99.99,,,0.00,0,weatherlink.com 1.10,2013-03-17 03:21:00,
2013-03-16 21:36:00,42.4,10.0,29.90,WSW,243,4.0,-999.0,27,-99.99,,,0.00,0,weatherlink.com 1.10,2013-03-17 03:36:00,
2013-03-16 21:51:00,42.9,11.0,29.90,WSW,252,3.0,-999.0,27,-99.99,,,0.00,0,weatherlink.com 1.10,2013-03-17 03:51:00,
2013-03-16 22:06:00,42.7,11.0,29.89,WSW,253,0.0,-999.0,27,-99.99,,,0.00,0,weatherlink.com 1.10,2013-03-17 04:06:00,
2013-03-16 22:21:00,42.7,11.0,29.89,WSW,253,0.0,-999.0,27,-99.99,,,0.00,0,weatherlink.com 1.10,2013-03-17 04:21:00,
2013-03-16 22:36:00,42.3,10.0,29.89,WSW,253,0.0,-999.0,27,-99.99,,,0.00,0,weatherlink.com 1.10,2013-03-17 04:36:00,
2013-03-16 22:51:00,43.0,11.0,29.89,WSW,254,1.0,-999.0,27,-99.99,,,0.00,0,weatherlink.com 1.10,2013-03-17 04:51:00,
2013-03-16 23:06:00,42.6,11.0,29.88,West,281,0.0,-999.0,27,-99.99,,,0.00,0,weatherlink.com 1.10,2013-03-17 05:06:00,